TimeMST,TemperatureF,Dew PointF,Humidity,Sea Level PressureIn,VisibilityMPH,Wind Direction,Wind SpeedMPH,Gust SpeedMPH,PrecipitationIn,Events,Conditions,WindDirDegrees,DateUTC
12:53 AM,-0.9,-2.9,91,30.31,10.0,Calm,Calm,-,N/A,,Partly Cloudy,0,2013-01-14 07:53:00
1:53 AM,1.9,-0.9,88,30.30,10.0,Calm,Calm,-,N/A,,Partly Cloudy,0,2013-01-14 08:53:00
2:53 AM,1.0,-2.0,87,30.32,10.0,West,3.5,-,N/A,,Clear,260,2013-01-14 09:53:00
3:53 AM,1.9,-2.0,83,30.31,10.0,West,3.5,-,N/A,,Mostly Cloudy,280,2013-01-14 10:53:00
4:53 AM,1.9,-0.9,88,30.31,10.0,WNW,4.6,-,N/A,,Mostly Cloudy,290,2013-01-14 11:53:00
5:09 AM,1.4,-2.2,85,30.00,10.0,West,4.6,-,N/A,,Mostly Cloudy,280,2013-01-14 12:09:00
5:17 AM,1.4,-0.4,92,30.00,10.0,WNW,4.6,-,N/A,,Mostly Cloudy,300,2013-01-14 12:17:00
5:50 AM,3.2,-0.4,85,30.01,10.0,NNW,4.6,-,N/A,,Overcast,330,2013-01-14 12:50:00
5:53 AM,3.0,-0.9,84,30.33,9.0,NW,4.6,-,N/A,,Overcast,320,2013-01-14 12:53:00
6:53 AM,1.9,-0.9,88,30.36,8.0,Calm,Calm,-,N/A,,Overcast,0,2013-01-14 13:53:00
7:53 AM,3.0,-0.0,87,30.37,6.0,NW,3.5,-,N/A,,Overcast,310,2013-01-14 14:53:00
8:53 AM,3.9,1.0,88,30.39,4.0,NW,5.8,-,N/A,,Overcast,320,2013-01-14 15:53:00
9:53 AM,5.0,1.9,87,30.38,3.0,Calm,Calm,-,0.00,Snow,Light Snow,0,2013-01-14 16:53:00
10:53 AM,7.0,1.0,77,30.35,3.0,Calm,Calm,-,0.00,,Overcast,0,2013-01-14 17:53:00
11:53 AM,7.0,1.0,77,30.30,4.0,Calm,Calm,-,N/A,,Overcast,0,2013-01-14 18:53:00
12:01 PM,6.8,-0.4,72,29.98,6.0,Calm,Calm,-,N/A,,Mostly Cloudy,0,2013-01-14 19:01:00
12:53 PM,10.0,1.0,67,30.26,6.0,Calm,Calm,-,N/A,,Haze,0,2013-01-14 19:53:00
1:10 PM,10.4,1.4,67,29.95,7.0,Calm,Calm,-,N/A,,Scattered Clouds,0,2013-01-14 20:10:00
1:53 PM,10.9,1.0,64,30.25,6.0,NNE,4.6,-,N/A,,Haze,30,2013-01-14 20:53:00
3:53 PM,10.0,1.0,67,30.29,8.0,NE,3.5,-,N/A,,Scattered Clouds,40,2013-01-14 22:53:00
4:53 PM,9.0,1.0,70,30.32,8.0,NNE,4.6,-,N/A,,Scattered Clouds,20,2013-01-14 23:53:00
5:53 PM,8.1,1.0,73,30.33,9.0,Calm,Calm,-,N/A,,Scattered Clouds,0,2013-01-15 00:53:00
6:53 PM,5.0,-0.0,80,30.35,8.0,South,4.6,-,N/A,,Scattered Clouds,180,2013-01-15 01:53:00
7:53 PM,3.9,-0.9,80,30.34,7.0,SSW,3.5,-,N/A,,Scattered Clouds,210,2013-01-15 02:53:00
8:53 PM,3.9,-2.0,76,30.32,8.0,WSW,3.5,-,N/A,,Partly Cloudy,250,2013-01-15 03:53:00
9:53 PM,3.0,-2.0,80,30.32,8.0,South,3.5,-,N/A,,Clear,180,2013-01-15 04:53:00
10:53 PM,1.0,-4.0,79,30.31,8.0,South,4.6,-,N/A,,Clear,170,2013-01-15 05:53:00
11:53 PM,1.9,-4.0,76,30.29,8.0,SSW,4.6,-,N/A,,Clear,200,2013-01-15 06:53:00